• In Uzbekistan
  • List of Countries
  • For 7 days
  • Water Temperature
  • Satellite Maps
  • Weather Map
  • Weather Widgets
  • user-avatar
    Login

    Hourly Weather Ghanzi

    Today, 21 September, Thursday

    Time Temperature Precipitation Wind Pressure Humidity
    00:00 +30°C° 0 mm 4 mps 716 mmHg 9%
    01:00 +29°C° 0 mm 4 mps 715 mmHg 10%
    02:00 +28°C° 0 mm 4 mps 715 mmHg 10%
    03:00 +28°C° 0 mm 4 mps 715 mmHg 11%
    04:00 +27°C° 0 mm 4 mps 715 mmHg 12%
    05:00 +28°C° 0 mm 4 mps 716 mmHg 12%
    06:00 +29°C° 0 mm 4 mps 716 mmHg 12%
    07:00 +29°C° 0 mm 4 mps 716 mmHg 13%
    08:00 +33°C° 0 mm 4 mps 717 mmHg 11%
    09:00 +35°C° 0 mm 4 mps 717 mmHg 9%
    10:00 +38°C° 0 mm 4 mps 717 mmHg 8%
    11:00 +39°C° 0 mm 3 mps 717 mmHg 7%
    12:00 +39°C° 0 mm 3 mps 716 mmHg 6%
    13:00 +40°C° 0 mm 3 mps 716 mmHg 5%
    14:00 +40°C° 0 mm 3 mps 715 mmHg 5%
    15:00 +40°C° 0 mm 3 mps 715 mmHg 5%
    16:00 +41°C° 0 mm 4 mps 714 mmHg 4%
    17:00 +38°C° 0 mm 4 mps 714 mmHg 5%
    18:00 +36°C° 0 mm 4 mps 714 mmHg 6%
    19:00 +34°C° 0 mm 3 mps 714 mmHg 7%
    20:00 +34°C° 0 mm 4 mps 715 mmHg 8%
    21:00 +33°C° 0 mm 4 mps 715 mmHg 9%
    22:00 +32°C° 0 mm 4 mps 715 mmHg 10%
    23:00 +32°C° 0 mm 4 mps 715 mmHg 11%

    Tomorrow, 22 September, Friday

    Time Temperature Precipitation Wind Pressure Humidity
    00:00 +30°C° 0 mm 5 mps 715 mmHg 12%
    01:00 +30°C° 0 mm 5 mps 715 mmHg 13%
    02:00 +30°C° 0 mm 5 mps 715 mmHg 13%
    03:00 +29°C° 0 mm 5 mps 715 mmHg 14%
    04:00 +29°C° 0 mm 5 mps 715 mmHg 15%
    05:00 +29°C° 0 mm 6 mps 715 mmHg 15%
    06:00 +30°C° 0 mm 6 mps 716 mmHg 14%
    07:00 +30°C° 0 mm 6 mps 716 mmHg 14%
    08:00 +34°C° 0 mm 6 mps 716 mmHg 12%
    09:00 +38°C° 0 mm 7 mps 717 mmHg 10%
    10:00 +40°C° 0 mm 7 mps 717 mmHg 9%
    11:00 +41°C° 0 mm 7 mps 717 mmHg 8%
    12:00 +41°C° 0 mm 6 mps 716 mmHg 8%
    13:00 +42°C° 0 mm 6 mps 715 mmHg 8%
    14:00 +42°C° 0 mm 6 mps 715 mmHg 7%
    15:00 +41°C° 0 mm 6 mps 714 mmHg 7%
    16:00 +41°C° 0 mm 7 mps 714 mmHg 7%
    17:00 +39°C° 0 mm 6 mps 715 mmHg 8%
    18:00 +38°C° 0 mm 6 mps 715 mmHg 9%
    19:00 +35°C° 0 mm 5 mps 715 mmHg 10%
    20:00 +34°C° 0 mm 5 mps 716 mmHg 11%
    21:00 +33°C° 0 mm 6 mps 716 mmHg 12%
    22:00 +33°C° 0 mm 6 mps 717 mmHg 13%
    23:00 +32°C° 0 mm 6 mps 716 mmHg 14%

    Day after tomorrow, 23 September, Saturday

    Time Temperature Precipitation Wind Pressure Humidity
    00:00 +32°C° 0 mm 6 mps 716 mmHg 16%
    01:00 +30°C° 0 mm 7 mps 716 mmHg 17%
    02:00 +30°C° 0 mm 6 mps 716 mmHg 18%
    03:00 +29°C° 0 mm 6 mps 716 mmHg 19%
    04:00 +29°C° 0 mm 6 mps 716 mmHg 20%
    05:00 +29°C° 0 mm 7 mps 716 mmHg 20%
    06:00 +30°C° 0 mm 7 mps 717 mmHg 20%
    07:00 +31°C° 0 mm 8 mps 718 mmHg 21%
    08:00 +34°C° 0 mm 8 mps 718 mmHg 18%
    09:00 +37°C° 0 mm 8 mps 718 mmHg 15%
    10:00 +39°C° 0 mm 8 mps 719 mmHg 12%
    11:00 +40°C° 0 mm 8 mps 718 mmHg 11%
    12:00 +41°C° 0 mm 7 mps 717 mmHg 9%
    13:00 +43°C° 0 mm 7 mps 717 mmHg 8%
    14:00 +41°C° 0 mm 7 mps 716 mmHg 8%
    15:00 +41°C° 0 mm 7 mps 716 mmHg 8%
    16:00 +41°C° 0 mm 7 mps 716 mmHg 8%
    17:00 +39°C° 0 mm 6 mps 716 mmHg 10%
    18:00 +36°C° 0 mm 6 mps 716 mmHg 11%
    19:00 +35°C° 0 mm 5 mps 716 mmHg 12%
    20:00 +34°C° 0 mm 5 mps 717 mmHg 13%
    21:00 +33°C° 0 mm 6 mps 717 mmHg 13%
    22:00 +33°C° 0 mm 6 mps 717 mmHg 14%
    23:00 +32°C° 0 mm 6 mps 717 mmHg 16%

    24 September, Sunday

    Time Temperature Precipitation Wind Pressure Humidity
    00:00 +32°C° 0 mm 6 mps 717 mmHg 19%
    01:00 +30°C° 0 mm 6 mps 717 mmHg 21%
    02:00 +29°C° 0 mm 6 mps 717 mmHg 23%
    03:00 +28°C° 0 mm 6 mps 717 mmHg 25%
    04:00 +28°C° 0 mm 5 mps 716 mmHg 27%
    05:00 +28°C° 0 mm 6 mps 717 mmHg 26%
    06:00 +28°C° 0 mm 6 mps 717 mmHg 26%
    07:00 +29°C° 0 mm 7 mps 718 mmHg 25%
    08:00 +32°C° 0 mm 7 mps 718 mmHg 21%
    09:00 +35°C° 0 mm 7 mps 718 mmHg 17%
    10:00 +38°C° 0 mm 7 mps 719 mmHg 13%
    11:00 +39°C° 0 mm 7 mps 718 mmHg 12%
    12:00 +40°C° 0 mm 7 mps 717 mmHg 11%
    13:00 +41°C° 0 mm 7 mps 716 mmHg 9%
    14:00 +41°C° 0 mm 7 mps 716 mmHg 9%
    15:00 +40°C° 0 mm 7 mps 716 mmHg 9%
    16:00 +40°C° 0 mm 7 mps 715 mmHg 9%
    17:00 +38°C° 0 mm 6 mps 715 mmHg 11%
    18:00 +36°C° 0 mm 5 mps 716 mmHg 12%
    19:00 +34°C° 0 mm 4 mps 716 mmHg 13%
    20:00 +33°C° 0 mm 4 mps 716 mmHg 14%
    21:00 +33°C° 0 mm 5 mps 716 mmHg 15%
    22:00 +32°C° 0 mm 5 mps 716 mmHg 16%
    23:00 +30°C° 0 mm 5 mps 716 mmHg 17%

    25 September, Monday

    Time Temperature Precipitation Wind Pressure Humidity
    00:00 +30°C° 0 mm 5 mps 716 mmHg 18%
    01:00 +29°C° 0 mm 5 mps 715 mmHg 19%
    02:00 +28°C° 0 mm 4 mps 715 mmHg 20%
    03:00 +28°C° 0 mm 4 mps 715 mmHg 22%
    04:00 +27°C° 0 mm 4 mps 715 mmHg 23%
    05:00 +27°C° 0 mm 4 mps 716 mmHg 22%
    06:00 +28°C° 0 mm 4 mps 716 mmHg 22%
    07:00 +29°C° 0 mm 4 mps 717 mmHg 21%
    08:00 +32°C° 0 mm 5 mps 717 mmHg 18%
    09:00 +34°C° 0 mm 5 mps 717 mmHg 15%
    10:00 +36°C° 0 mm 5 mps 717 mmHg 12%
    11:00 +39°C° 0 mm 6 mps 716 mmHg 11%
    12:00 +40°C° 0 mm 6 mps 716 mmHg 10%
    13:00 +41°C° 0 mm 6 mps 715 mmHg 9%
    14:00 +41°C° 0 mm 7 mps 715 mmHg 9%
    15:00 +41°C° 0 mm 7 mps 715 mmHg 9%
    16:00 +41°C° 0 mm 7 mps 714 mmHg 9%
    17:00 +39°C° 0 mm 6 mps 715 mmHg 11%
    18:00 +36°C° 0 mm 5 mps 715 mmHg 12%
    19:00 +35°C° 0 mm 5 mps 715 mmHg 13%
    20:00 +34°C° 0 mm 5 mps 715 mmHg 14%
    21:00 +33°C° 0 mm 5 mps 715 mmHg 15%
    22:00 +33°C° 0 mm 5 mps 715 mmHg 15%
    23:00 +32°C° 0 mm 5 mps 715 mmHg 16%

    26 September, Tuesday

    Time Temperature Precipitation Wind Pressure Humidity
    00:00 +30°C° 0 mm 5 mps 715 mmHg 17%
    01:00 +30°C° 0 mm 5 mps 714 mmHg 18%
    02:00 +29°C° 0 mm 4 mps 714 mmHg 19%
    03:00 +29°C° 0 mm 4 mps 714 mmHg 20%
    04:00 +28°C° 0 mm 4 mps 715 mmHg 21%
    05:00 +29°C° 0 mm 4 mps 715 mmHg 19%
    06:00 +29°C° 0 mm 4 mps 716 mmHg 18%
    07:00 +30°C° 0 mm 4 mps 716 mmHg 17%
    08:00 +33°C° 0 mm 4 mps 716 mmHg 16%
    09:00 +36°C° 0 mm 5 mps 716 mmHg 14%
    10:00 +39°C° 0 mm 5 mps 717 mmHg 12%
    11:00 +40°C° 0 mm 6 mps 716 mmHg 11%
    12:00 +41°C° 0 mm 6 mps 715 mmHg 10%
    13:00 +42°C° 0 mm 6 mps 714 mmHg 9%
    14:00 +42°C° 0 mm 6 mps 714 mmHg 9%
    15:00 +41°C° 0 mm 6 mps 714 mmHg 9%
    16:00 +41°C° 0 mm 6 mps 714 mmHg 9%
    17:00 +40°C° 0 mm 6 mps 714 mmHg 10%
    18:00 +37°C° 0 mm 5 mps 714 mmHg 11%
    19:00 +35°C° 0 mm 4 mps 714 mmHg 12%
    20:00 +34°C° 0 mm 4 mps 714 mmHg 13%
    21:00 +34°C° 0 mm 5 mps 715 mmHg 13%
    22:00 +33°C° 0 mm 5 mps 715 mmHg 14%
    23:00 +32°C° 0 mm 5 mps 715 mmHg 14%
    Show more